www.pogodaiklimat.ru

Погода и климат >> Архив погоды >> Россия >> Краснодарский край >> Кореновск


ПОГОДА в Кореновске

  • Прогноз погоды в Кореновске
  • Монитор погоды в Кореновске

АРХИВ ПОГОДЫ в Кореновске

Время (UTC), дата Ветер
(напр.,м/с)
 
Видим.   Явления Облачность Т
(С)
Тd
(С)
f
(%)
Тe
(С)
Тes
(С)
Комфортность P
(гПа)
Po
(гПа)
Тmin
(С)
Tmax
(С)
R
(мм)
R24
(мм)
S
(см)
06 10.07 СЗ 2 10 км 10/10 600 м
[Cb cap]
+21.0 +10.4 51 +24 +24 комфорт 1009.6 1004.0
09 10.07 С 4 10 км {ливн. осадки} 10/10 600 м
[Cb cap]
+19.3 +12.2 63 +20 +20 1009.6 1004.0
12 10.07 ЮВ 1 10 км {ливн. осадки} 9/8 600 м
[Cb cap Ac trans]
+22.8 +11.1 48 +25 +27 комфорт 1008.1 1002.6
15 10.07 СЗ 3 10 км 9/6 600 м
[Cb cap Ac trans]
+22.7 +12.9 54 +26 +26 жарко 1007.5 1002.0 +24.2 0.0
18 10.07 С 1 10 км 9/9 600 м
[Cb cap]
+20.5 +13.7 65 +24 +24 комфорт 1008.1 1002.5
21 10.07 С 1 10 км 9/9 600 м
[Cb cap]
+19.3 +14.2 72 +22 +22 комфорт 1007.5 1001.9
00 11.07 С 1 10 км слаб. ливневой дождь 10/10 600 м
[Cb cap]
+18.1 +15.2 83 +19 +19 1006.6 1001.0
03 11.07 С 3 10 км {ливн. осадки} 8/8 600 м
[Cb cap]
+17.4 +13.4 77 +17 +18 1006.4 1000.8 +17.4 0.0
06 11.07 СВ 2 10 км {ливн. осадки} 10/10 600 м
[Cb cap]
+20.0 +11.4 58 +22 +22 комфорт 1005.9 1000.3 +17.3
09 11.07 С 3 10 км слаб. ливневой дождь 10/10 600 м
[Cb cap]
+18.0 +15.2 84 +18 +18 1006.7 1001.1
12 11.07 СВ 3 10 км слаб. ливневой дождь 10/10 600 м
[Cb cap]
+15.9 +13.7 87 +15 +15 1006.7 1001.0
15 11.07 В 2 10 км в посл. час ливневой дождь 10/10 600 м
[Cb cap]
+16.9 +14.9 88 +17 +17 1006.5 1000.9 +20.1 7
18 11.07 СВ 1 10 км {ливн. осадки} 10/10 600 м
[Cb cap]
+16.6 +15.1 91 +17 +17 1006.6 1001.0
21 11.07 С 1 10 км слаб. ливневой дождь 10/10 600 м
[Cb cap]
+15.9 +14.5 91 +17 +17 1007.0 1001.3
00 12.07 СВ 1 10 км слаб. ливневой дождь 10/10 600 м
[Cb cap]
+15.5 +14.2 92 +16 +16 1006.9 1001.2
03 12.07 С 1 10 км слаб. ливневой дождь 10/10 600 м
[Cb cap]
+15.1 +14.0 93 +16 +16 1007.3 1001.6 +15.1 5
06 12.07 В 2 10 км {ливн. осадки} 8/0
[Ac trans]
+17.3 +13.4 78 +18 +23 1007.9 1002.3 +15.1
09 12.07 ЮВ 1 10 км 9/8 600 м
[Cb cap Ci fib]
+21.8 +12.0 54 +24 +28 комфорт 1008.5 1002.9
12 12.07 Ю 1 10 км 8/6 600 м
[Cb cap Ci fib]
+24.2 +10.5 42 +25 +31 комфорт 1008.1 1002.6
15 12.07 ЮВ 2 10 км 10/3 600 м
[Cb cap Ac trans Cc]
+24.2 +11.1 44 +26 +26 жарко 1008.1 1002.6 +25.4 0.5
18 12.07 Ю 1 10 км 4/1 600 м
[Cb cap Ac trans Ci fib]
+19.7 +13.7 68 +23 +23 комфорт 1009.1 1003.5
21 12.07 ЮВ 2 10 км 3/1 1500 м
[Sc Ac trans]
+17.7 +13.6 77 +18 +18 1009.0 1003.3
00 13.07 ЮВ 2 10 км 9/0
[Ac trans]
+17.3 +13.6 79 +18 +18 1008.0 1002.3
03 13.07 З 2
{12}
10 км гроза, ливневой дождь 10/10 600 м
[Cb cap]
+15.4 +13.3 87 +15 +15 1008.9 1003.3 +15.4 2
06 13.07 С 2 10 км {гроза, ливн. осадки} 8/6 600 м
[Cb cap Ac trans]
+17.1 +13.0 77 +17 +20 1009.8 1004.1 +14.8
09 13.07 З 2 10 км {ливн. осадки} 8/8 600 м
[Cb cap]
+22.8 +12.3 52 +26 +29 жарко 1009.6 1004.0
12 13.07 З 3
{10}
10 км слаб. ливневой дождь 8/8 600 м
[Cb cap]
+20.3 +13.4 65 +23 +25 комфорт 1009.7 1004.1
15 13.07 З 2 10 км {ливн. осадки} 8/8 600 м
[Cb cap]
+22.6 +10.2 45 +24 +25 комфорт 1010.2 1004.7 +23.9 0.5
18 13.07 штиль 0 10 км {ливн. осадки} 3/1 600 м
[Cb cap Ac trans]
+18.6 +14.0 75 +19 +19 1011.0 1005.4
21 13.07 Ю 1 10 км 1/0
[Ac trans]
+17.0 +13.7 81 +18 +18 1011.2 1005.5
00 14.07 Ю 1 4000 м дымка ясно +14.9 +13.7 93 +15 +15 1010.9 1005.2
03 14.07 Ю 1 4000 м в посл. час туман 3/0
[Ac trans Ci fib]
+14.7 +13.9 95 +15 +16 1011.0 1005.3 +13.1
06 14.07 З 1 10 км {туман} 1/0
[Ac trans]
+22.3 +13.4 57 +25 +36 комфорт 1010.7 1005.2
09 14.07 Ю 1 10 км 8/8 600 м
[Cb cap]
+25.3 +10.9 40 +26 +31 жарко 1009.9 1004.4
12 14.07 ЮВ 1 10 км 9/8 600 м
[Cb cap Ci fib]
+27.1 +9.8 34 +28 +30 жарко 1008.8 1003.3
15 14.07 Ю 1 10 км 10/5 600 м
[Cb cap Ci fib]
+26.6 +8.9 33 +27 +28 жарко 1007.9 1002.4 +27.5
18 14.07 С 1 10 км 10/0
[Ac trans Ci]
+21.9 +12.4 55 +24 +24 комфорт 1008.0 1002.4
21 14.07 С 2 10 км 10/0
[Ac trans Ci fib]
+18.7 +12.0 65 +20 +20 1006.9 1001.3
00 15.07 СВ 2 10 км ясно +18.4 +10.6 60 +19 +19 1006.1 1000.5
03 15.07 В 1 10 км 4/0
[Ci fib]
+18.6 +11.5 63 +20 +21 1005.5 999.9 +17.6
06 15.07 В 4 10 км 10/0
[Ac trans Ci fib]
+25.8 +11.1 40 +27 +31 жарко 1005.0 999.5
09 15.07 В 6
{13}
10 км 10/5 1000 м
[Sc diur, vesp Ac As]
+26.6 +9.6 34 +27 +28 жарко 1004.2 998.7
12 15.07 ЮВ 2
{10}
10 км слаб. ливневой дождь 10/10 600 м
[Cb cap]
+24.7 +13.3 49 +27 +27 жарко 1004.5 999.0
15 15.07 СВ 2 10 км слаб. ливневой дождь 10/10 600 м
[Cb cap]
+20.1 +17.3 84 +24 +24 комфорт 1005.2 999.6 +26.8 2
18 15.07 В 1 10 км слаб. ливневой дождь 10/10 600 м
[Cb cap]
+18.6 +16.2 86 +21 +21 комфорт 1005.4 999.8
21 15.07 штиль 0 10 км {ливн. осадки} 8/3 1000 м
[Sc Cc]
+17.8 +16.2 90 +18 +18 1005.6 1000.0
00 16.07 ЮВ 1 10 км 5/5 1000 м
[]
+17.1 +16.0 93 +18 +18 1005.0 999.4
03 16.07 ЮВ 3 4000 м дымка 8/8 600 м
[Cb cap]
+17.1 +16.0 93 +17 +17 1005.0 999.4 +16.8 0.3
06 16.07 Ю 4 10 км 9/6 600 м
[Cb cap Ac trans]
+21.8 +16.8 73 +26 +27 душно 1005.1 999.6
09 16.07 Ю 4 10 км 8/8 600 м
[Cb cap]
+23.3 +15.0 60 +27 +30 душно 1004.9 999.4
12 16.07 ЮЗ 6-12
{12}
10 км в посл. час ливневой дождь 9/9 600 м
[Cb cap]
+23.3 +14.6 58 +27 +28 душно 1005.3 999.8
15 16.07 З 5-11
{15}
10 км в посл. час ливневой дождь 8/8 600 м
[Cb cap]
+22.4 +14.4 61 +26 +26 жарко 1007.0 1001.5 +24.9 0.5
18 16.07 З 2
{11}
10 км {ливн. осадки} 8/4 600 м
[Cb cap Cc]
+19.8 +14.3 71 +22 +22 комфорт 1009.3 1003.7
21 16.07 ЮЗ 2 10 км 4/4 1000 м
[Sc]
+18.5 +15.7 84 +20 +20 1009.2 1003.6
00 17.07 ЮЗ 1 10 км 4/4 1000 м
[Sc]
+17.5 +15.3 87 1008.9
03 17.07 Ю 3 4000 м дымка 5/3 1000 м
[Sc Ci fib]
+17.2 +15.6 90 +17 +17 1009.1 1003.5 +16.6 0.3

 

Местоположение метеостанции Кореновск (Краснодарский край, Россия): широта 45.47 долгота 39.48 высота над уровнем моря 48 м.

В архиве по умолчанию представлена погода в Кореновске за последнюю неделю. Архивные данные за месяц целиком и за предыдущие месяцы, начиная с января 2011 года, Вы можете получить, выбрав интересующий диапазон дат из раскрывающегося списка и нажав кнопку "Ввод!".


*Определитесь, кто Вы:
робот инопланетянин человек

Внимание! Время в таблицах - всемирное. Для получения местного времени необходимо прибавить поправку, которая равна 3 ч.

Смотрите также архив погоды в соседних городах и на ближайших метеорологических станциях:

Погода в Усть-Лабинске (Краснодарский край, Россия) (33 км)
Погода в Тимашевске (Краснодарский край, Россия) (46 км)
Погода в Краснодаре (Краснодарский край, Россия) (59 км)
Погода в Тихорецке (Краснодарский край, Россия) (63 км)
Погода в Каневской (Краснодарский край, Россия) (78 км)
Погода в Сосыке (Краснодарский край, Россия) (78 км)
Погода в Кропоткине (Краснодарский край, Россия) (85 км)
Погода в Белореченске (Краснодарский край, Россия) (87 км)
Погода в Дондуковской (Адыгея, Россия) (96 км)
Погода в Горячем Ключе (Краснодарский край, Россия) (98 км)

Пояснения к столбцам:

Ветер - указаны скорость ветра в м/с - средняя за 10 мин, порывы в срок и между сроками (в фигурных скобках) и направление, откуда дует ветер: С - северный, СВ - северо-восточный, В - восточный, ЮВ - юго-восточный, Ю - южный, ЮЗ - юго-западный, З - западный, СЗ - северо-западный.
Видимость - горизонтальная дальность видимости в метрах или километрах. При видимости от 1 до 10 км при отсутствии осадков обычно наблюдается дымка, при ухудшении видимости до 1 км и менее - туман. В сухую погоду видимость может ухудшаться дымом, пылью или мглою.
Явления - указаны атмосферные явления, наблюдавшиеся в срок или в последний час перед сроком; фигурными скобками обозначены явления, наблюдавшиеся между сроками (за 1-3 часа до срока); квадратными скобками обозначены град или гололедные отложения с указанием их диаметра в мм.
Облачность - указаны через наклонную черту общая и нижняя облачность в баллах и высота нижней границы облаков в метрах; квадратными скобками обозначены формы облаков: Ci - перистые, Cs - перисто-слоистые, Cc - перисто-кучевые, Ac - высококучевые, As - высокослоистые, Sc - слоисто-кучевые, Ns - слоисто-дождевые, Cu - кучевые, Cb - кучево-дождевые. Подробнее классификацию облаков см. в Атласе облаков (PDF).
T - Температура воздуха - температура, измеренная на высоте 2 м над землей.
Td - Температура точки росы - температура, при понижении до которой содержащийся в воздухе водяной пар достигнет насыщения.
f - Относительная влажность воздуха - влажноcть воздуха, измеренная на высоте 2 м над землей.
Te - Эффективная температура - температура, которую ощущает одетый по сезону человек в тени. Характеристика душности погоды. При расчете учитывается влияние влажности воздуха и скорости ветра на теплоощущения человека.
Tes - Эффективная температура на солнце - температура, которую ощущает человек, с поправкой на солнечный нагрев. Характеристика знойности погоды. Зависит от высоты солнца над горизонтом, облачности и скорости ветра. Ночью, в пасмурную погоду, а также при ветре 12 м/с и более поправка равна нулю.
P - Атмосферное давление - приведенное к уровню моря атмосферное давление.
Po - Атмосферное давление - измеренное на уровне метеостанции атмосферное давление.
Tmin - Минимальная температура - минимум температуры воздуха на высоте 2 м над землей.
Tmax - Максимальная температура - максимум температуры воздуха на высоте 2 м над землей.
R - Количество осадков - Количество выпавших осадков за период времени, мм. При наведении курсора мыши на число - период времени, за который выпало указанное количество осадков.
R24 - Количество осадков - Количество выпавших осадков за 24 часа, мм.
S - Снежный покров - Высота снежного покрова, см. При наведении курсора мыши на число - состояние снежного покрова и степень покрытия местности в баллах.